Starlink 4560

operational
NORAD ID: 53691 Int'l Des: 2022-105 Owner: SPXS Country: US Constellation: starlink
LEOCIRCULARRETROGRADESSO

关于 Starlink 4560

正在加载描述...

实时位置

正在加载3D地球...

即将过境

高度历史

Altitude vs Time

uPlot chart will show altitude changes over time

两行轨道根数

1 53691U 22105AV 26073.19692925 -.00002266 00000-0 -15280-3 0 9992
2 53691 97.6030 315.6503 0002135 93.0469 267.1002 15.05663120193983
Epoch: Mar 14, 2026 • Age: 9 hours

当前状态

高度 565.0 km
速度 7.58 km/s
星下点 -38.21°S, 112.81°E
发射日期 Aug 31, 2022
运行时间 3.5 years
类型 internet

技术详情

分类 Payload
质量 300.00 kg
干质量 290.00 kg
总质量 300.00 kg
长度 0.20 m
直径 2.80 m
跨度 9.00 m
形状 Box + pan
制造商 SPXS
平台类型 Starlink
阶段状态 In Orbit
所有者/国家 SPXS/US

大型星座

Loading constellations...